GW4214 Weather Reports


Display with metric or nautical units.
time (UTC)temp
F
wind
direction
speed
MPH
gust
MPH
rain 1hr
in
rain 24hr
in
rain mn
in
humidity
%
barometer
mb
20260510140244 52 199 0.0 0.0 0.00 0.00 0.00 95 1020.6
20260510135743 52 203 0.0 0.0 0.00 0.00 0.00 95 1020.6
20260510135239 51 208 0.0 0.0 0.00 0.00 0.00 95 1020.6
20260510134737 51 211 0.0 0.0 0.00 0.00 0.00 95 1020.6
20260510134234 51 209 0.0 0.0 0.00 0.00 0.00 96 1020.6
20260510133730 51 205 0.0 0.0 0.00 0.00 0.00 96 1020.6
20260510133226 50 206 0.0 0.0 0.00 0.00 0.00 96 1020.3
20260510132722 51 206 0.0 0.0 0.00 0.00 0.00 95 1020.9
20260510132220 51 206 0.0 0.0 0.00 0.00 0.00 95 1020.6
20260510131717 51 206 0.0 0.0 0.00 0.00 0.00 95 1020.9
20260510131215 51 207 0.0 0.0 0.00 0.00 0.00 95 1020.9
20260510130710 51 205 0.0 0.0 0.00 0.00 0.00 95 1020.6
20260510130208 51 209 0.0 0.0 0.00 0.00 0.00 95 1020.6
20260510125704 51 208 0.0 0.0 0.00 0.00 0.00 95 1020.3
20260510125200 51 210 0.0 0.0 0.00 0.00 0.00 95 1020.3
20260510124657 51 209 0.0 0.0 0.00 0.00 0.00 95 1020.3
20260510124155 51 209 0.0 0.0 0.00 0.00 0.00 95 1020.3
20260510123650 51 209 0.0 0.0 0.00 0.00 0.00 95 1020.3
20260510123146 51 207 0.0 0.0 0.00 0.00 0.00 95 1020.3
20260510122642 51 210 0.0 0.0 0.00 0.00 0.00 95 1020.6
20260510122138 51 211 0.0 0.0 0.00 0.00 0.00 95 1020.6
20260510121635 51 208 0.0 0.0 0.00 0.00 0.00 95 1020.3
20260510121132 51 210 0.0 0.0 0.00 0.00 0.00 95 1020.3
20260510120630 51 210 0.0 0.0 0.00 0.00 0.00 95 1020.3
20260510120125 51 212 0.0 0.0 0.00 0.00 0.00 95 1020.3
20260510115622 51 212 0.0 0.0 0.00 0.00 0.00 94 1020.3
20260510115120 51 211 0.0 0.0 0.00 0.00 0.00 95 1020.3
20260510114615 51 214 0.0 0.0 0.00 0.00 0.00 94 1020.3
20260510114112 51 216 0.0 0.0 0.00 0.00 0.00 94 1020.3
20260510113607 51 209 0.0 0.0 0.00 0.00 0.00 94 1020.3
20260510113105 51 209 0.0 0.0 0.00 0.00 0.00 94 1019.9
20260510112601 51 208 0.0 0.0 0.00 0.00 0.00 94 1019.9
20260510112058 51 211 0.0 0.0 0.00 0.00 0.00 93 1020.3
20260510111554 51 208 0.0 0.0 0.00 0.00 0.00 93 1019.9
20260510111050 52 211 0.0 0.0 0.00 0.00 0.00 93 1020.3
20260510110546 52 209 0.0 0.0 0.00 0.00 0.00 93 1020.3
20260510110043 52 208 0.0 0.0 0.00 0.00 0.00 93 1019.9
20260510105538 52 204 0.0 0.0 0.00 0.00 0.00 93 1020.3
20260510105033 52 216 0.0 0.0 0.00 0.00 0.00 93 1019.9
20260510104530 52 215 0.0 0.0 0.00 0.00 0.00 93 1019.6
20260510104026 52 216 0.0 0.0 0.00 0.00 0.00 92 1019.6
20260510103524 52 213 0.0 0.0 0.00 0.00 0.00 93 1019.6
20260510103020 52 211 0.0 0.0 0.00 0.00 0.00 92 1019.6
20260510102516 52 215 0.0 0.0 0.00 0.00 0.00 91 1019.9
20260510102012 52 216 0.0 0.0 0.00 0.00 0.00 91 1019.6
20260510101509 53 209 0.0 0.0 0.00 0.00 0.00 91 1019.6
20260510101009 53 213 0.0 0.0 0.00 0.00 0.00 91 1019.6
20260510100504 53 208 0.0 0.0 0.00 0.00 0.00 90 1019.6
20260510100001 53 208 0.0 0.0 0.00 0.00 0.00 90 1019.6
20260510095456 53 208 0.0 0.0 0.00 0.00 0.00 90 1019.3
20260510094955 54 208 0.0 0.0 0.00 0.00 0.00 90 1019.3
20260510094451 54 208 0.0 0.0 0.00 0.00 0.00 89 1018.9
20260510093947 54 208 0.0 0.0 0.00 0.00 0.00 89 1019.3
20260510093442 54 208 0.0 0.0 0.00 0.00 0.00 88 1018.9
20260510092939 55 208 0.0 0.0 0.00 0.00 0.00 88 1018.9
20260510092437 55 212 0.0 0.0 0.00 0.00 0.00 87 1019.3
20260510091936 55 217 0.0 0.0 0.00 0.00 0.00 87 1019.3
20260510091433 55 220 0.0 0.0 0.00 0.00 0.00 86 1018.9
20260510090930 56 225 0.0 0.0 0.00 0.00 0.00 86 1018.9
20260510090426 56 228 0.0 0.0 0.00 0.00 0.00 86 1018.9
20260510085922 56 236 0.0 0.0 0.00 0.00 0.00 86 1019.3
20260510085418 55 232 0.0 0.0 0.00 0.00 0.00 87 1019.3
20260510084913 55 242 0.0 0.0 0.00 0.00 0.00 88 1018.9
20260510084411 55 226 0.0 0.0 0.00 0.00 0.00 88 1018.6
20260510083907 55 213 0.0 0.0 0.00 0.00 0.00 88 1018.9
20260510083404 55 215 0.0 0.0 0.00 0.00 0.00 87 1018.9
20260510082859 55 216 0.0 0.0 0.00 0.00 0.00 87 1018.6
20260510082357 56 216 0.0 0.0 0.00 0.00 0.00 87 1018.9
20260510081855 56 213 0.0 0.0 0.00 0.00 0.00 87 1018.9
20260510081351 56 215 0.0 0.0 0.00 0.00 0.00 86 1018.6
20260510080849 56 215 0.0 0.0 0.00 0.00 0.00 86 1018.9
20260510080342 56 210 0.0 0.0 0.00 0.00 0.00 86 1018.9
20260510075840 56 214 0.0 0.0 0.00 0.00 0.00 85 1018.9
20260510075337 57 208 0.0 0.0 0.00 0.00 0.00 85 1018.9
20260510074834 57 212 0.0 0.0 0.00 0.00 0.00 85 1018.9
20260510074331 57 216 0.0 0.0 0.00 0.00 0.00 85 1018.6
20260510073827 57 213 0.0 0.0 0.00 0.00 0.00 85 1018.6
20260510073317 57 215 0.0 0.0 0.00 0.00 0.00 85 1018.9
20260510072813 57 212 0.0 0.0 0.00 0.00 0.00 85 1018.9
20260510072310 57 212 0.0 0.0 0.00 0.00 0.00 84 1018.6
20260510071806 58 212 0.0 0.0 0.00 0.00 0.00 83 1018.6
20260510071303 58 212 0.0 0.0 0.00 0.00 0.00 83 1018.6
20260510070802 58 215 0.0 0.0 0.00 0.00 0.00 83 1018.9
20260510070258 58 217 0.0 0.0 0.00 0.00 0.00 82 1018.6
20260510065758 58 217 0.0 0.0 0.00 0.00 0.00 82 1018.9
20260510065255 59 217 0.0 0.0 0.00 0.00 0.00 81 1018.6
20260510064752 59 221 0.0 0.0 0.00 0.00 0.00 81 1018.6
20260510064250 59 213 0.0 0.0 0.00 0.00 0.00 81 1018.6
20260510063745 59 215 0.0 0.0 0.00 0.00 0.00 80 1018.6
20260510063242 59 216 0.0 0.0 0.00 0.00 0.00 80 1018.6
20260510062739 60 215 0.0 0.0 0.00 0.00 0.00 79 1018.6
20260510062234 60 215 0.0 0.0 0.00 0.00 0.00 79 1018.6
20260510061730 60 212 0.0 0.0 0.00 0.00 0.00 78 1018.2
20260510061227 60 212 0.0 0.0 0.00 0.00 0.00 77 1018.2
20260510060724 60 211 0.0 0.0 0.00 0.00 0.00 77 1018.2
20260510060220 61 217 0.0 0.0 0.00 0.00 0.00 75 1018.2
20260510055717 61 217 0.0 0.0 0.00 0.00 0.00 75 1018.2
20260510055215 62 207 0.0 0.0 0.00 0.00 0.00 74 1018.2
20260510054710 62 207 0.0 0.0 0.00 0.00 0.00 73 1018.2
20260510054206 63 205 0.0 0.0 0.00 0.00 0.00 72 1018.2
20260510053705 63 212 0.0 0.0 0.00 0.00 0.00 71 1018.6
20260510053202 64 214 0.0 0.0 0.00 0.00 0.00 70 1018.2
20260510052658 64 240 0.0 0.0 0.00 0.00 0.00 69 1018.2
20260510052154 64 225 0.0 0.0 0.00 0.00 0.00 68 1018.2
20260510051650 65 7 0.0 0.0 0.00 0.00 0.00 68 1017.9
20260510051147 65 240 0.0 0.0 0.00 0.00 0.00 67 1018.2
20260510050644 65 238 0.0 0.0 0.00 0.00 0.00 67 1018.2
20260510050141 65 252 0.0 0.0 0.00 0.00 0.00 67 1017.9
20260510045638 66 241 0.0 0.0 0.00 0.00 0.00 66 1017.9
20260510045134 66 239 0.0 0.0 0.00 0.00 0.00 66 1017.9
20260510044630 66 230 0.0 0.0 0.00 0.00 0.00 66 1017.9
20260510044128 66 219 0.0 0.0 0.00 0.00 0.00 66 1017.9
20260510043624 66 223 0.0 0.0 0.00 0.00 0.00 66 1017.9
20260510043120 66 250 0.0 0.0 0.00 0.00 0.00 65 1017.6
20260510042619 66 237 0.0 1.0 0.00 0.00 0.00 65 1017.6
20260510042114 67 224 0.0 0.0 0.00 0.00 0.00 64 1017.9
20260510041612 67 220 0.0 0.0 0.00 0.00 0.00 63 1017.6
20260510041109 67 230 0.0 0.0 0.00 0.00 0.00 62 1017.6
20260510040606 68 217 0.0 0.0 0.00 0.00 0.00 62 1017.2
20260510035558 68 232 0.0 0.0 0.00 0.00 0.00 60 1017.2
20260510035057 69 216 0.0 0.0 0.00 0.00 0.00 58 1017.2
20260510034556 70 227 0.0 0.0 0.00 0.00 0.00 56 1017.2
20260510034052 70 225 0.0 0.0 0.00 0.00 0.00 54 1016.9
20260510033549 71 226 0.0 0.0 0.00 0.00 0.00 53 1016.9
20260510033047 71 212 0.0 0.0 0.00 0.00 0.00 51 1017.2
20260510032543 72 223 0.0 0.0 0.00 0.00 0.00 49 1016.9
20260510032038 72 225 0.0 0.0 0.00 0.00 0.00 47 1016.9
20260510031533 73 232 0.0 0.0 0.00 0.00 0.00 48 1016.9
20260510031029 73 217 0.0 0.0 0.00 0.00 0.00 47 1017.2
20260510030525 73 234 0.0 0.0 0.00 0.00 0.00 46 1016.9
20260510030023 74 213 0.0 0.0 0.00 0.00 0.00 46 1016.9
20260510025519 75 216 0.0 0.0 0.00 0.00 0.00 45 1016.9
20260510025017 75 213 0.0 0.0 0.00 0.00 0.00 44 1016.9
20260510024514 76 213 0.0 0.0 0.00 0.00 0.00 43 1016.9
20260510024010 76 213 0.0 0.0 0.00 0.00 0.00 42 1016.9
20260510023506 76 213 0.0 0.0 0.00 0.00 0.00 42 1016.9
20260510023003 76 218 0.0 0.0 0.00 0.00 0.00 41 1016.9
20260510022502 77 215 0.0 0.0 0.00 0.00 0.00 40 1016.9
20260510022002 77 214 0.0 0.0 0.00 0.00 0.00 40 1016.9
20260510021459 77 239 0.0 0.0 0.00 0.00 0.00 39 1016.9
20260510020956 77 238 0.0 0.0 0.00 0.00 0.00 38 1016.9
20260510020450 77 315 0.0 0.0 0.00 0.00 0.00 37 1016.9
20260510015946 77 211 0.0 0.0 0.00 0.00 0.00 37 1016.9
20260510015442 77 238 0.0 0.0 0.00 0.00 0.00 36 1016.9
20260510014937 77 220 0.0 0.0 0.00 0.00 0.00 36 1017.2
20260510014435 77 236 0.0 0.0 0.00 0.00 0.00 37 1016.9
20260510013931 77 2 0.0 0.0 0.00 0.00 0.00 37 1016.9
20260510013426 77 170 0.0 0.0 0.00 0.00 0.00 37 1017.2
20260510012922 77 326 0.0 1.0 0.00 0.00 0.00 38 1017.2
20260510012417 77 270 0.0 0.0 0.00 0.00 0.00 40 1017.2
20260510011912 78 113 0.0 0.0 0.00 0.00 0.00 40 1017.2
20260510011407 78 216 0.0 0.0 0.00 0.00 0.00 39 1017.2
20260510010904 78 217 0.0 0.0 0.00 0.00 0.00 39 1017.2
20260510010401 78 212 0.0 0.0 0.00 0.00 0.00 39 1017.2
20260510005858 78 214 0.0 0.0 0.00 0.00 0.00 38 1017.2
20260510005354 78 329 1.0 2.0 0.00 0.00 0.00 39 1017.2
20260510004851 79 237 0.0 0.0 0.00 0.00 0.00 39 1017.6
20260510004349 78 207 0.0 0.0 0.00 0.00 0.00 40 1017.6
20260510003847 79 210 0.0 0.0 0.00 0.00 0.00 38 1017.6
20260510003343 79 210 0.0 0.0 0.00 0.00 0.00 39 1017.2
20260510002842 78 222 0.0 0.0 0.00 0.00 0.00 39 1017.2
20260510002339 79 97 0.0 1.0 0.00 0.00 0.00 39 1017.2
20260510001836 81 172 0.0 0.0 0.00 0.00 0.00 39 1017.6
20260510001334 81 224 0.0 0.0 0.00 0.00 0.00 36 1017.6
20260510000830 81 60 0.0 0.0 0.00 0.00 0.00 38 1017.6
20260510000328 81 290 0.0 0.0 0.00 0.00 0.00 38 1017.6
20260509235824 81 222 0.0 1.0 0.00 0.00 0.00 38 1017.6
20260509235321 81 220 0.0 0.0 0.00 0.00 0.00 38 1017.9
20260509234817 79 258 0.0 0.0 0.00 0.00 0.00 37 1017.9
20260509234313 80 330 5.0 7.0 0.00 0.00 0.00 38 1017.9
20260509233812 80 223 0.0 0.0 0.00 0.00 0.00 38 1017.9
20260509233309 80 205 0.0 0.0 0.00 0.00 0.00 41 1017.9
20260509232805 80 18 1.0 3.0 0.00 0.00 0.00 41 1017.9
20260509232306 81 166 0.0 0.0 0.00 0.00 0.00 41 1017.6
20260509231758 80 215 0.0 0.0 0.00 0.00 0.00 39 1018.2
20260509231255 80 221 0.0 0.0 0.00 0.00 0.00 40 1018.2
20260509230753 80 207 1.0 3.0 0.00 0.00 0.00 40 1018.2
20260509230250 81 249 0.0 0.0 0.00 0.00 0.00 39 1018.2
20260509225745 81 6 1.0 3.0 0.00 0.00 0.00 38 1018.6
20260509225241 80 229 0.0 0.0 0.00 0.00 0.00 40 1018.6
20260509224737 79 220 0.0 0.0 0.00 0.00 0.00 40 1018.6
20260509224235 79 234 0.0 0.0 0.00 0.00 0.00 42 1018.6
20260509223731 79 204 0.0 0.0 0.00 0.00 0.00 41 1018.6
20260509223228 79 209 0.0 0.0 0.00 0.00 0.00 41 1018.6
20260509222725 80 247 0.0 1.0 0.00 0.00 0.00 40 1018.6
20260509222220 80 357 2.0 5.0 0.00 0.00 0.00 40 1019.3
20260509221716 80 8 1.0 3.0 0.00 0.00 0.00 41 1018.9
20260509221213 79 282 0.0 0.0 0.00 0.00 0.00 43 1019.3
20260509220708 79 58 1.0 3.0 0.00 0.00 0.00 44 1019.3
20260509220206 79 353 1.0 3.0 0.00 0.00 0.00 44 1019.6
20260509215701 79 78 2.0 5.0 0.00 0.00 0.00 43 1019.3
20260509215158 79 257 0.0 0.0 0.00 0.00 0.00 45 1019.6
20260509214655 78 198 0.0 0.0 0.00 0.00 0.00 42 1019.6
20260509214152 78 245 0.0 0.0 0.00 0.00 0.00 43 1019.6
20260509213649 78 159 0.0 0.0 0.00 0.00 0.00 46 1019.6
20260509213144 78 235 0.0 0.0 0.00 0.00 0.00 45 1019.9
20260509212642 77 198 0.0 0.0 0.00 0.00 0.00 49 1019.6
20260509212138 77 267 0.0 0.0 0.00 0.00 0.00 48 1019.9
20260509211635 77 315 0.0 0.0 0.00 0.00 0.00 49 1019.9
20260509211132 77 301 0.0 0.0 0.00 0.00 0.00 49 1019.9
20260509210629 75 206 0.0 1.0 0.00 0.00 0.00 53 1019.9
20260509210126 77 309 0.0 0.0 0.00 0.00 0.00 50 1019.9
20260509205620 76 204 0.0 0.0 0.00 0.00 0.00 52 1019.9
20260509205115 75 266 2.0 5.0 0.00 0.00 0.00 52 1020.3
20260509204611 76 254 0.0 0.0 0.00 0.00 0.00 52 1020.3
20260509204102 74 37 0.0 0.0 0.00 0.00 0.00 54 1020.3
20260509203558 73 209 0.0 1.0 0.00 0.00 0.00 56 1020.3
20260509203056 71 52 0.0 0.0 0.00 0.00 0.00 58 1020.3
20260509202550 72 269 5.0 7.0 0.00 0.00 0.00 59 1020.3
20260509202046 72 251 1.0 3.0 0.00 0.00 0.00 59 1020.3
20260509201541 71 249 0.0 0.0 0.00 0.00 0.00 60 1020.6
20260509201039 71 214 2.0 6.0 0.00 0.00 0.00 59 1020.6
20260509200533 72 251 3.0 5.0 0.00 0.00 0.00 58 1020.3
20260509200030 71 304 5.0 7.0 0.00 0.00 0.00 58 1020.6
20260509195526 70 231 0.0 1.0 0.00 0.00 0.00 60 1020.6
20260509195025 71 305 3.0 5.0 0.00 0.00 0.00 58 1020.9
20260509194520 71 232 0.0 0.0 0.00 0.00 0.00 59 1020.9
20260509194018 72 241 1.0 2.0 0.00 0.00 0.00 55 1020.9
20260509193513 72 348 1.0 3.0 0.00 0.00 0.00 56 1020.9
20260509193010 71 355 1.0 3.0 0.00 0.00 0.00 55 1021.3
20260509192506 72 199 0.0 0.0 0.00 0.00 0.00 57 1021.3
20260509192001 72 273 0.0 0.0 0.00 0.00 0.00 56 1021.3
20260509191456 72 112 1.0 2.0 0.00 0.00 0.00 59 1021.6
20260509190952 71 190 0.0 0.0 0.00 0.00 0.00 58 1021.6
20260509190449 70 132 0.0 0.0 0.00 0.00 0.00 61 1021.3
20260509185947 69 287 0.0 0.0 0.00 0.00 0.00 63 1021.6
20260509185444 69 223 0.0 0.0 0.00 0.00 0.00 62 1021.3
20260509184940 69 18 0.0 1.0 0.00 0.00 0.00 62 1021.6
20260509184438 70 299 5.0 7.0 0.00 0.00 0.00 64 1021.6
20260509183934 70 227 0.0 0.0 0.00 0.00 0.00 62 1021.6
20260509183429 70 251 0.0 0.0 0.00 0.00 0.00 60 1021.6
20260509182926 69 257 0.0 0.0 0.00 0.00 0.00 62 1022.0
20260509182422 68 226 0.0 1.0 0.00 0.00 0.00 63 1022.0
20260509181920 68 344 0.0 1.0 0.00 0.00 0.00 63 1021.6
20260509181418 68 205 0.0 0.0 0.00 0.00 0.00 65 1022.0
20260509180915 67 5 1.0 1.0 0.00 0.00 0.00 66 1022.0
20260509180410 67 353 0.0 0.0 0.00 0.00 0.00 66 1022.0
20260509175907 65 211 0.0 0.0 0.00 0.00 0.00 68 1022.0
20260509175403 66 223 2.0 3.0 0.00 0.00 0.00 69 1021.6
20260509174900 65 9 2.0 2.0 0.00 0.00 0.00 69 1022.0
20260509174356 65 343 7.0 9.0 0.00 0.00 0.00 69 1022.0
20260509173852 65 24 0.0 0.0 0.00 0.00 0.00 69 1022.0
20260509173346 64 207 0.0 0.0 0.00 0.00 0.00 70 1022.0
20260509172843 64 4 4.0 7.0 0.00 0.00 0.00 71 1022.3
20260509172339 64 193 0.0 0.0 0.00 0.00 0.00 72 1022.3
20260509171835 63 305 0.0 0.0 0.00 0.00 0.00 73 1022.3
20260509171331 62 239 0.0 0.0 0.00 0.00 0.00 74 1022.3
20260509170828 62 199 0.0 0.0 0.00 0.00 0.00 75 1022.3
20260509170324 62 222 1.0 3.0 0.00 0.00 0.00 75 1022.6
20260509165824 61 348 3.0 3.0 0.00 0.00 0.00 77 1022.6
20260509165318 60 216 2.0 3.0 0.00 0.00 0.00 78 1022.6
20260509164814 61 345 2.0 2.0 0.00 0.00 0.00 78 1022.6
20260509164311 60 17 2.0 2.0 0.00 0.00 0.00 77 1022.6
20260509163807 60 292 4.0 5.0 0.00 0.00 0.00 78 1022.6
20260509163305 59 283 3.0 5.0 0.00 0.00 0.00 79 1023.0
20260509162804 59 318 4.0 6.0 0.00 0.00 0.00 79 1022.6
20260509162306 58 201 1.0 1.0 0.00 0.00 0.00 81 1023.0
20260509161759 59 210 4.0 7.0 0.00 0.00 0.00 80 1023.3
20260509161255 58 217 1.0 2.0 0.00 0.00 0.00 81 1023.3
20260509160750 58 10 2.0 3.0 0.00 0.00 0.00 81 1023.3
20260509160247 57 24 3.0 5.0 0.00 0.00 0.00 81 1023.0
20260509155742 57 339 3.0 3.0 0.00 0.00 0.00 82 1023.3
20260509155239 57 230 0.0 0.0 0.00 0.00 0.00 83 1023.3
20260509154735 56 290 3.0 5.0 0.00 0.00 0.00 83 1023.0
20260509154232 56 320 3.0 3.0 0.00 0.00 0.00 83 1023.0
20260509153729 56 211 2.0 2.0 0.00 0.00 0.00 85 1023.3
20260509153225 55 1 2.0 2.0 0.00 0.00 0.00 86 1023.3
20260509152722 55 15 3.0 3.0 0.00 0.00 0.00 86 1023.7
20260509152218 55 209 3.0 3.0 0.00 0.00 0.00 87 1023.7
20260509151715 55 310 3.0 3.0 0.00 0.00 0.00 87 1023.3
20260509151212 55 232 0.0 0.0 0.00 0.00 0.00 88 1024.0
20260509150710 55 319 1.0 1.0 0.00 0.00 0.00 89 1024.0
20260509150208 55 277 0.0 1.0 0.00 0.00 0.00 90 1024.0
20260509145704 54 212 0.0 1.0 0.00 0.00 0.00 91 1024.0
20260509145159 53 220 0.0 0.0 0.00 0.00 0.00 93 1023.3
20260509144656 53 221 0.0 0.0 0.00 0.00 0.00 94 1024.0
20260509144153 52 210 0.0 0.0 0.00 0.00 0.00 96 1024.0
20260509143650 52 224 0.0 0.0 0.00 0.00 0.00 97 1023.7
20260509143148 51 232 0.0 0.0 0.00 0.00 0.00 97 1023.7
20260509142643 51 278 0.0 0.0 0.00 0.00 0.00 98 1023.7
20260509142140 51 232 0.0 0.0 0.00 0.00 0.00 98 1023.3
20260509141636 51 223 0.0 0.0 0.00 0.00 0.00 99 1023.3
20260509141132 50 219 0.0 0.0 0.00 0.00 0.00 99 1023.7
20260509140629 50 223 0.0 0.0 0.00 0.00 0.00 99 1023.7